Location: ???? ???? ?????
(31.2680°N, 31.7283°E)
Time: 09:16:06
(UTC+00:00)

SJ-6B - Pass Details

Date: 13 July 2020
Orbit: 510 x 581 km, 97.6° (Epoch: 08 August)

Event Time Altitude Azimuth Distance (km) Brightness Sun altitude
Exits shadow 17:37:32 - 159° (SSE) 2,300 5.5 -8.0°
Reaches altitude 10° 17:38:38 10° 157° (SSE) 1,843 5.0 -8.2°
Maximum altitude 17:42:35 62° 76° (ENE) 643 3.0 -8.9°
Drops below altitude 10° 17:46:37 10° 356° (N) 1,887 6.1 -9.7°
Sets 17:48:48 0° 353° (N) 2,795 7.1 -10.1°
